Flag for South Korea Weather past 2 weeks in Busan, South Korea

Now
25 °F

Clear.


Feels Like: 20 °F
Forecast: 24 / 45 °F
Wind: 3 mph from North

Location: Pusan / Kimhae International Airport

Current Time: Dec 18, 2014 at 11:29:36 PM

Latest Report: Dec 18, 2014 at 11:00 PM


Visibility: 10 mi

Pressure: 30.54 "Hg

Humidity: 50%

Dew point: 9 °F

Location of BusanLocation

Historic Weather in Busan — Graph

°F

Busan temperature yesterday

Maximum temperature yesterday: 34 °F (at 2:00 PM)
Minimum temperature yesterday: 21 °F (at 7:00 AM)
Average temperature yesterday: 28 °F

Past Weeks' High & Low Weather Summary

 TemperatureHumidityPressure
High57 °F (Dec 10, 1:00 PM)100% (Dec 8, 7:00 AM)30.54 "Hg (Dec 8, 7:00 AM)
Low19 °F (Dec 18, 8:00 AM)15% (Dec 18, 1:00 PM)29.89 "Hg (Dec 16, 5:00 AM)
Average36 °F53%30.22 "Hg
* Reported Dec 3 10:00 PM — Dec 18 10:00 PM, Busan, Weather by CustomWeather, © 2014

Note: Actual official high and low records may vary slightly from our data, if they occured in-between our weather recording intervals... More about our weather records

Advertising

Busan weather history for previous 24 hours

 ConditionsComfort  
Time TempWeatherWind HumidityBarometerVisibility
10:00 PM
Dec 18
27 °FClear.6 mph43%30.54 "Hg10 mi
9:00 PM28 °FClear.1 mph40%30.51 "Hg10 mi
8:00 PM30 °FClear.3 mph34%30.51 "Hg10 mi
7:00 PM32 °FClear.3 mph29%30.48 "Hg10 mi
6:00 PM34 °FClear.7 mph23%30.48 "Hg10 mi
5:00 PM36 °FSunny.8 mph21%30.45 "Hg10 mi
4:00 PM39 °FSunny.12 mph16%30.45 "Hg10 mi
3:00 PM39 °FSunny.8 mph17%30.42 "Hg10 mi
2:00 PM37 °FSunny.12 mph17%30.42 "Hg10 mi
1:00 PM36 °FSunny.12 mph15%30.42 "Hg10 mi
12:00 PM34 °FSunny.14 mph18%30.45 "Hg10 mi
11:00 AM32 °FSunny.14 mph21%30.48 "Hg10 mi
10:00 AM28 °FSunny.10 mph31%30.48 "Hg10 mi
9:00 AM27 °FSunny.10 mph43%30.45 "Hg10 mi
8:00 AM19 °FSunny.3 mph58%30.42 "Hg10 mi
7:00 AM21 °FClear.3 mph49%30.39 "Hg10 mi
6:00 AM21 °FClear.1 mph54%30.36 "Hg10 mi
5:00 AM21 °FClear.6 mph54%30.33 "Hg10 mi
3:00 AM23 °FClear.9 mph54%30.34 "HgN/A
12:00 AM25 °FClear.5 mph50%30.31 "HgN/A
11:00 PM
Dec 17
25 °FClear.9 mph46%30.27 "Hg10 mi
Weather by CustomWeather, © 2014

See weather overviewHow to use our weather pages